User: anonymous   Login
Location: Whispering Pines Observatory
(39.4020°N, 104.7430°W)
Time: 22:52:44
(UTC-06:00)
Language:

MOS 1 Rocket - Orbit

View from above orbital plane
View from above orbital plane
View from above satellite
View from above satellite

Ground track
Ground track

The orbit data is extracted from the following two-line orbital elements,

1 17528U 87018B   17204.50939341 +.00000015 +00000-0 +12691-4 0  9994
2 17528 097.4545 157.4455 0151818 183.1284 313.8257 14.50785648584522
Epoch (UTC): 23 July 2017 12:13:31
Eccentricity: 0.0151818
inclination: 97.4545°
perigee height: 615 km
apogee height: 831 km
right ascension of ascending node: 157.4455°
argument of perigee: 183.1284°
revolutions per day: 14.50785648
mean anomaly at epoch: 313.8257°
orbit number at epoch: 58452

The dashed part of the orbit path shows where the satellite is in the earth's shadow,  

DLR